Moline, IL

10:54 AM CDT on August 19, 2017 (GMT -0500)
Quad-City International

Weather History for KMLI - August, 2013

Change the Weather History Date:

Monday, August 19, 2013

  Actual Average Record
Temperature  
Mean Temperature 71 °F 74 °F  
Max Temperature 84 °F 84 °F 101 °F (1983)
Min Temperature 57 °F 63 °F 49 °F (1981)
Degree Days  
Heating Degree Days 0 0  
Month to date heating degree days 4 0  
Since 1 June heating degree days 38 21  
Since 1 July heating degree days 11 2  
Cooling Degree Days 6 9  
Month to date cooling degree days 96 178  
Year to date cooling degree days 647 792  
Since 1 June cooling degree days 557 716  
Growing Degree Days 20 (Base 50)    
Moisture  
Dew Point 61 °F    
Average Humidity 72    
Maximum Humidity 93    
Minimum Humidity 51    
Precipitation  
Precipitation 0.00 in 0.15 in 3.10 in (1990)
Month to date precipitation 0.76 2.80  
Year to date precipitation 32.61 25.44  
Snow  
Snow 0.00 in 0.00 in - ()
Month to date snowfall 0.0 0.0  
Since 1 June snowfall 0.0 0.0  
Since 1 July snowfall 0.0 0.0  
Snow Depth 0.00 in    
Sea Level Pressure  
Sea Level Pressure 30.08 in    
Wind  
Wind Speed 4 mph (South)    
Max Wind Speed 12 mph    
Max Gust Speed 15 mph    
Visibility 9 miles    
Events      
T = Trace of Precipitation, MM = Missing Value Source: NWS Daily Summary

Daily Weather History Graph

Daily Weather History Graph

Search for Another Location

Airport or City:

Trip Planner

Search our weather history database for the weather conditions in past years. The results will help you decide how hot, cold, wet, or windy it might be!

Date:

Astronomy

Aug. 19, 2013 Rise Set
Actual Time 6:15 AM CDT 7:55 PM CDT
Civil Twilight 5:45 AM CDT 8:24 PM CDT
Nautical Twilight 5:10 AM CDT 8:59 PM CDT
Astronomical Twilight 4:32 AM CDT 9:37 PM CDT
Moon 6:46 PM CDT 4:34 AM CDT
Length of Visible Light 14h 38m
Length of Day
13h 39m
Waxing Gibbous, 97% of the Moon is Illuminated
Aug 19
Waxing Gibbous
Aug 20
Full
Aug 28
Last Quarter
Sep 5
New
Sep 12
First Quarter

Hourly Weather History & Observations

Time (CDT) Temp. Heat Index Dew Point Humidity Pressure Visibility Wind Dir Wind Speed Gust Speed Precip Events Conditions
12:52 AM 62.1 °F - 57.9 °F 86% 30.10 in 10.0 mi Calm Calm - N/A   Clear
1:52 AM 64.0 °F - 57.9 °F 80% 30.10 in 10.0 mi Calm Calm - N/A   Clear
2:52 AM 64.0 °F - 57.9 °F 80% 30.09 in 10.0 mi Calm Calm - N/A   Clear
3:52 AM 59.0 °F - 55.0 °F 87% 30.10 in 10.0 mi Calm Calm - N/A   Clear
4:52 AM 57.9 °F - 55.9 °F 93% 30.10 in 9.0 mi Calm Calm - N/A   Clear
5:52 AM 59.0 °F - 55.9 °F 90% 30.11 in 9.0 mi Calm Calm - N/A   Clear
6:52 AM 59.0 °F - 55.9 °F 90% 30.12 in 7.0 mi Calm Calm - N/A   Partly Cloudy
7:29 AM 62.6 °F - 57.2 °F 82% 30.12 in 8.0 mi Calm Calm - N/A   Partly Cloudy
7:52 AM 66.0 °F - 60.1 °F 81% 30.12 in 8.0 mi Calm Calm - N/A   Clear
8:52 AM 70.0 °F - 62.1 °F 76% 30.12 in 9.0 mi Calm Calm - N/A   Clear
9:52 AM 75.0 °F - 64.0 °F 69% 30.12 in 10.0 mi SSW 5.8 mph - N/A   Clear
10:52 AM 78.1 °F - 64.0 °F 62% 30.11 in 10.0 mi SW 4.6 mph - N/A   Clear
11:52 AM 79.0 °F - 63.0 °F 58% 30.10 in 10.0 mi SW 5.8 mph - N/A   Clear
12:52 PM 82.0 °F 83.0 °F 62.1 °F 51% 30.09 in 10.0 mi South 9.2 mph - N/A   Scattered Clouds
1:52 PM 82.9 °F 84.0 °F 63.0 °F 51% 30.07 in 10.0 mi South 9.2 mph - N/A   Mostly Cloudy
2:52 PM 82.9 °F 84.0 °F 63.0 °F 51% 30.06 in 10.0 mi South 6.9 mph - N/A   Scattered Clouds
3:52 PM 81.0 °F 82.2 °F 63.0 °F 54% 30.04 in 10.0 mi SSW 5.8 mph - N/A   Clear
4:52 PM 82.9 °F 83.7 °F 62.1 °F 49% 30.04 in 10.0 mi SSW 8.1 mph - N/A   Clear
5:52 PM 81.0 °F 82.2 °F 63.0 °F 54% 30.04 in 10.0 mi SSW 5.8 mph - N/A   Partly Cloudy
6:52 PM 79.0 °F - 64.9 °F 62% 30.02 in 10.0 mi South 3.5 mph - N/A   Clear
7:52 PM 73.9 °F - 66.0 °F 76% 30.02 in 9.0 mi South 4.6 mph - N/A   Clear
8:52 PM 70.0 °F - 64.9 °F 84% 30.03 in 8.0 mi SSE 3.5 mph - N/A   Clear
9:52 PM 69.1 °F - 64.0 °F 84% 30.04 in 9.0 mi Calm Calm - N/A   Clear
10:52 PM 71.1 °F - 64.0 °F 78% 30.04 in 10.0 mi South 5.8 mph - N/A   Clear
11:52 PM 71.1 °F - 64.0 °F 78% 30.03 in 10.0 mi South 5.8 mph - N/A   Clear